Time,TemperatureF,DewpointF,PressureIn,WindDirection,WindDirectionDegrees,WindSpeedMPH,WindSpeedGustMPH,Humidity,HourlyPrecipIn,Conditions,Clouds,dailyrainin,SoftwareType,DateUTC
2013-09-29 00:02:00,43.0,25.1,30.29,ENE,67,6.0,8.0,49,0.00,,,0.00,Weather View 32 v70,2013-09-29 06:02:00,
2013-09-29 00:07:00,43.0,25.6,30.28,ENE,67,5.0,8.0,50,0.00,,,0.00,Weather View 32 v70,2013-09-29 06:07:00,
2013-09-29 00:12:00,43.0,27.0,30.28,East,90,4.0,8.0,53,0.00,,,0.00,Weather View 32 v70,2013-09-29 06:12:00,
2013-09-29 00:17:00,42.0,26.5,30.28,East,90,3.0,8.0,54,0.00,,,0.00,Weather View 32 v70,2013-09-29 06:17:00,
2013-09-29 00:22:00,42.0,27.0,30.28,East,90,4.0,8.0,55,0.00,,,0.00,Weather View 32 v70,2013-09-29 06:22:00,
2013-09-29 00:27:00,42.0,27.4,30.28,East,90,3.0,8.0,56,0.00,,,0.00,Weather View 32 v70,2013-09-29 06:27:00,
2013-09-29 00:32:00,42.0,29.1,30.28,East,90,4.0,8.0,60,0.00,,,0.00,Weather View 32 v70,2013-09-29 06:32:00,
2013-09-29 00:37:00,41.0,28.6,30.29,ENE,67,7.0,10.0,61,0.00,,,0.00,Weather View 32 v70,2013-09-29 06:37:00,
2013-09-29 00:42:00,41.0,29.4,30.29,East,90,6.0,10.0,63,0.00,,,0.00,Weather View 32 v70,2013-09-29 06:42:00,
2013-09-29 00:47:00,41.0,29.4,30.29,East,90,5.0,10.0,63,0.00,,,0.00,Weather View 32 v70,2013-09-29 06:47:00,
2013-09-29 00:52:00,41.0,29.4,30.29,East,90,5.0,10.0,63,0.00,,,0.00,Weather View 32 v70,2013-09-29 06:52:00,
2013-09-29 00:57:00,41.0,29.7,30.29,East,90,3.0,10.0,64,0.00,,,0.00,Weather View 32 v70,2013-09-29 06:57:00,
2013-09-29 01:02:00,40.0,29.5,30.29,East,90,4.0,10.0,66,0.00,,,0.00,Weather View 32 v70,2013-09-29 07:02:00,
2013-09-29 01:07:00,40.0,29.5,30.29,East,90,3.0,10.0,66,0.00,,,0.00,Weather View 32 v70,2013-09-29 07:07:00,
2013-09-29 01:12:00,40.0,30.3,30.29,East,90,4.0,10.0,68,0.00,,,0.00,Weather View 32 v70,2013-09-29 07:12:00,
2013-09-29 01:17:00,40.0,30.6,30.29,East,90,5.0,10.0,69,0.00,,,0.00,Weather View 32 v70,2013-09-29 07:17:00,
2013-09-29 01:22:00,40.0,30.3,30.29,ENE,67,5.0,10.0,68,0.00,,,0.00,Weather View 32 v70,2013-09-29 07:22:00,
2013-09-29 01:27:00,39.0,29.0,30.30,ENE,67,6.0,10.0,67,0.00,,,0.00,Weather View 32 v70,2013-09-29 07:27:00,
2013-09-29 01:32:00,39.0,28.6,30.30,ENE,67,5.0,10.0,66,0.00,,,0.00,Weather View 32 v70,2013-09-29 07:32:00,
2013-09-29 01:37:00,39.0,28.6,30.30,ENE,67,4.0,10.0,66,0.00,,,0.00,Weather View 32 v70,2013-09-29 07:37:00,
2013-09-29 01:42:00,39.0,28.6,30.30,ENE,67,5.0,8.0,66,0.00,,,0.00,Weather View 32 v70,2013-09-29 07:42:00,
2013-09-29 01:47:00,39.0,29.0,30.30,ENE,67,4.0,7.0,67,0.00,,,0.00,Weather View 32 v70,2013-09-29 07:47:00,
2013-09-29 01:52:00,39.0,29.3,30.30,ENE,67,5.0,7.0,68,0.00,,,0.00,Weather View 32 v70,2013-09-29 07:52:00,
2013-09-29 01:58:00,39.0,29.7,30.30,ENE,67,3.0,7.0,69,0.00,,,0.00,Weather View 32 v70,2013-09-29 07:58:00,
2013-09-29 02:03:00,39.0,30.0,30.30,ENE,67,3.0,7.0,70,0.00,,,0.00,Weather View 32 v70,2013-09-29 08:03:00,
2013-09-29 02:08:00,38.0,29.4,30.30,ENE,67,4.0,7.0,71,0.00,,,0.00,Weather View 32 v70,2013-09-29 08:08:00,
2013-09-29 02:13:00,38.0,29.8,30.30,ENE,67,3.0,7.0,72,0.00,,,0.00,Weather View 32 v70,2013-09-29 08:13:00,
2013-09-29 02:18:00,38.0,30.1,30.30,ENE,67,3.0,7.0,73,0.00,,,0.00,Weather View 32 v70,2013-09-29 08:18:00,
2013-09-29 02:23:00,38.0,29.4,30.30,ENE,67,5.0,7.0,71,0.00,,,0.00,Weather View 32 v70,2013-09-29 08:23:00,
2013-09-29 02:28:00,38.0,29.1,30.30,ENE,67,3.0,7.0,70,0.00,,,0.00,Weather View 32 v70,2013-09-29 08:28:00,
2013-09-29 02:33:00,38.0,29.1,30.30,ENE,67,4.0,6.0,70,0.00,,,0.00,Weather View 32 v70,2013-09-29 08:33:00,
2013-09-29 02:38:00,38.0,29.4,30.30,ENE,67,4.0,6.0,71,0.00,,,0.00,Weather View 32 v70,2013-09-29 08:38:00,
2013-09-29 02:43:00,38.0,29.4,30.30,ENE,67,3.0,6.0,71,0.00,,,0.00,Weather View 32 v70,2013-09-29 08:43:00,
2013-09-29 02:48:00,38.0,29.8,30.30,ENE,67,3.0,6.0,72,0.00,,,0.00,Weather View 32 v70,2013-09-29 08:48:00,
2013-09-29 02:53:00,38.0,30.4,30.30,ENE,67,3.0,6.0,74,0.00,,,0.00,Weather View 32 v70,2013-09-29 08:53:00,
2013-09-29 02:58:00,38.0,30.1,30.30,ENE,67,1.0,6.0,73,0.00,,,0.00,Weather View 32 v70,2013-09-29 08:58:00,
2013-09-29 03:03:00,37.0,29.8,30.30,ENE,67,3.0,6.0,75,0.00,,,0.00,Weather View 32 v70,2013-09-29 09:03:00,
2013-09-29 03:08:00,37.0,31.4,30.30,ENE,67,4.0,6.0,80,0.00,,,0.00,Weather View 32 v70,2013-09-29 09:08:00,
2013-09-29 03:13:00,37.0,31.4,30.30,ENE,67,4.0,6.0,80,0.00,,,0.00,Weather View 32 v70,2013-09-29 09:13:00,
2013-09-29 03:18:00,37.0,31.7,30.30,East,90,3.0,6.0,81,0.00,,,0.00,Weather View 32 v70,2013-09-29 09:18:00,
2013-09-29 03:23:00,37.0,32.3,30.30,East,90,3.0,6.0,83,0.00,,,0.00,Weather View 32 v70,2013-09-29 09:23:00,
2013-09-29 03:28:00,37.0,31.7,30.30,East,90,2.0,6.0,81,0.00,,,0.00,Weather View 32 v70,2013-09-29 09:28:00,
2013-09-29 03:34:00,37.0,32.0,30.30,East,90,5.0,6.0,82,0.00,,,0.00,Weather View 32 v70,2013-09-29 09:34:00,
2013-09-29 03:39:00,37.0,31.4,30.30,East,90,4.0,6.0,80,0.00,,,0.00,Weather View 32 v70,2013-09-29 09:39:00,
2013-09-29 03:44:00,37.0,30.8,30.30,East,90,5.0,7.0,78,0.00,,,0.00,Weather View 32 v70,2013-09-29 09:44:00,
2013-09-29 03:49:00,37.0,30.8,30.30,East,90,4.0,7.0,78,0.00,,,0.00,Weather View 32 v70,2013-09-29 09:49:00,
2013-09-29 03:54:00,37.0,30.8,30.30,East,90,4.0,7.0,78,0.00,,,0.00,Weather View 32 v70,2013-09-29 09:54:00,
2013-09-29 03:59:00,37.0,30.8,30.30,East,90,4.0,7.0,78,0.00,,,0.00,Weather View 32 v70,2013-09-29 09:59:00,
2013-09-29 04:04:00,37.0,31.1,30.30,East,90,4.0,7.0,79,0.00,,,0.00,Weather View 32 v70,2013-09-29 10:04:00,
2013-09-29 04:09:00,37.0,31.4,30.30,East,90,5.0,7.0,80,0.00,,,0.00,Weather View 32 v70,2013-09-29 10:09:00,
2013-09-29 04:14:00,37.0,31.4,30.30,East,90,3.0,7.0,80,0.00,,,0.00,Weather View 32 v70,2013-09-29 10:14:00,
2013-09-29 04:19:00,37.0,31.4,30.30,East,90,3.0,7.0,80,0.00,,,0.00,Weather View 32 v70,2013-09-29 10:19:00,
2013-09-29 04:24:00,37.0,31.4,30.30,East,90,4.0,7.0,80,0.00,,,0.00,Weather View 32 v70,2013-09-29 10:24:00,
2013-09-29 04:29:00,37.0,31.1,30.30,East,90,5.0,7.0,79,0.00,,,0.00,Weather View 32 v70,2013-09-29 10:29:00,
2013-09-29 04:34:00,37.0,31.4,30.30,East,90,4.0,7.0,80,0.00,,,0.00,Weather View 32 v70,2013-09-29 10:34:00,
2013-09-29 04:39:00,37.0,31.4,30.30,East,90,5.0,7.0,80,0.00,,,0.00,Weather View 32 v70,2013-09-29 10:39:00,
2013-09-29 04:44:00,37.0,31.4,30.30,East,90,5.0,7.0,80,0.00,,,0.00,Weather View 32 v70,2013-09-29 10:44:00,
2013-09-29 04:49:00,37.0,31.4,30.30,East,90,5.0,7.0,80,0.00,,,0.00,Weather View 32 v70,2013-09-29 10:49:00,
2013-09-29 04:54:00,37.0,31.4,30.30,East,90,6.0,7.0,80,0.00,,,0.00,Weather View 32 v70,2013-09-29 10:54:00,
2013-09-29 04:59:00,37.0,31.1,30.30,East,90,6.0,7.0,79,0.00,,,0.00,Weather View 32 v70,2013-09-29 10:59:00,
2013-09-29 05:04:00,37.0,30.8,30.30,East,90,5.0,7.0,78,0.00,,,0.00,Weather View 32 v70,2013-09-29 11:04:00,
2013-09-29 05:09:00,37.0,31.1,30.30,East,90,6.0,7.0,79,0.00,,,0.00,Weather View 32 v70,2013-09-29 11:09:00,
2013-09-29 05:14:00,37.0,31.1,30.30,East,90,4.0,7.0,79,0.00,,,0.00,Weather View 32 v70,2013-09-29 11:14:00,
2013-09-29 05:19:00,37.0,31.1,30.30,East,90,5.0,7.0,79,0.00,,,0.00,Weather View 32 v70,2013-09-29 11:19:00,
2013-09-29 05:24:00,36.0,30.4,30.30,East,90,3.0,7.0,80,0.00,,,0.00,Weather View 32 v70,2013-09-29 11:24:00,
2013-09-29 05:29:00,36.0,30.4,30.30,East,90,4.0,7.0,80,0.00,,,0.00,Weather View 32 v70,2013-09-29 11:29:00,
2013-09-29 05:34:00,36.0,30.7,30.30,East,90,5.0,7.0,81,0.00,,,0.00,Weather View 32 v70,2013-09-29 11:34:00,
2013-09-29 05:39:00,36.0,30.7,30.30,East,90,4.0,7.0,81,0.00,,,0.00,Weather View 32 v70,2013-09-29 11:39:00,
2013-09-29 05:44:00,36.0,31.0,30.30,East,90,3.0,7.0,82,0.00,,,0.00,Weather View 32 v70,2013-09-29 11:44:00,
2013-09-29 05:49:00,36.0,31.0,30.30,East,90,4.0,7.0,82,0.00,,,0.00,Weather View 32 v70,2013-09-29 11:49:00,
2013-09-29 05:54:00,36.0,31.0,30.30,East,90,4.0,7.0,82,0.00,,,0.00,Weather View 32 v70,2013-09-29 11:54:00,
2013-09-29 05:59:00,36.0,31.6,30.30,East,90,4.0,7.0,84,0.00,,,0.00,Weather View 32 v70,2013-09-29 11:59:00,
2013-09-29 06:04:00,36.0,31.6,30.30,East,90,3.0,7.0,84,0.00,,,0.00,Weather View 32 v70,2013-09-29 12:04:00,
2013-09-29 06:09:00,36.0,31.6,30.31,East,90,4.0,7.0,84,0.00,,,0.00,Weather View 32 v70,2013-09-29 12:09:00,
2013-09-29 06:14:00,36.0,31.6,30.31,East,90,5.0,7.0,84,0.00,,,0.00,Weather View 32 v70,2013-09-29 12:14:00,
2013-09-29 06:19:00,35.0,30.7,30.30,East,90,4.0,6.0,84,0.00,,,0.00,Weather View 32 v70,2013-09-29 12:19:00,
2013-09-29 06:24:00,35.0,30.9,30.30,East,90,4.0,6.0,85,0.00,,,0.00,Weather View 32 v70,2013-09-29 12:24:00,
2013-09-29 06:29:00,35.0,31.2,30.31,East,90,4.0,6.0,86,0.00,,,0.00,Weather View 32 v70,2013-09-29 12:29:00,
2013-09-29 06:34:00,35.0,31.2,30.31,East,90,4.0,6.0,86,0.00,,,0.00,Weather View 32 v70,2013-09-29 12:34:00,
2013-09-29 06:39:00,35.0,31.5,30.31,East,90,3.0,6.0,87,0.00,,,0.00,Weather View 32 v70,2013-09-29 12:39:00,
2013-09-29 06:44:00,35.0,31.5,30.31,East,90,4.0,6.0,87,0.00,,,0.00,Weather View 32 v70,2013-09-29 12:44:00,
2013-09-29 06:49:00,35.0,31.8,30.31,East,90,4.0,6.0,88,0.00,,,0.00,Weather View 32 v70,2013-09-29 12:49:00,
2013-09-29 06:54:00,35.0,32.4,30.31,East,90,5.0,6.0,90,0.00,,,0.00,Weather View 32 v70,2013-09-29 12:54:00,
2013-09-29 06:59:00,35.0,32.6,30.31,East,90,5.0,7.0,91,0.00,,,0.00,Weather View 32 v70,2013-09-29 12:59:00,
2013-09-29 07:04:00,35.0,32.9,30.31,East,90,5.0,7.0,92,0.00,,,0.00,Weather View 32 v70,2013-09-29 13:04:00,
2013-09-29 07:09:00,35.0,32.6,30.31,East,90,6.0,7.0,91,0.00,,,0.00,Weather View 32 v70,2013-09-29 13:09:00,
2013-09-29 07:14:00,34.0,31.9,30.31,East,90,5.0,7.0,92,0.00,,,0.00,Weather View 32 v70,2013-09-29 13:14:00,
2013-09-29 07:19:00,35.0,32.6,30.31,East,90,5.0,7.0,91,0.00,,,0.00,Weather View 32 v70,2013-09-29 13:19:00,
2013-09-29 07:24:00,35.0,32.4,30.31,East,90,5.0,7.0,90,0.00,,,0.00,Weather View 32 v70,2013-09-29 13:24:00,
2013-09-29 07:29:00,35.0,32.1,30.31,East,90,4.0,7.0,89,0.00,,,0.00,Weather View 32 v70,2013-09-29 13:29:00,
2013-09-29 07:34:00,36.0,32.2,30.31,East,90,6.0,7.0,86,0.00,,,0.00,Weather View 32 v70,2013-09-29 13:34:00,
2013-09-29 07:39:00,36.0,31.0,30.31,SE,135,5.0,8.0,82,0.00,,,0.00,Weather View 32 v70,2013-09-29 13:39:00,
2013-09-29 07:44:00,37.0,30.5,30.31,East,90,6.0,8.0,77,0.00,,,0.00,Weather View 32 v70,2013-09-29 13:44:00,
2013-09-29 07:50:00,38.0,30.1,30.32,East,90,5.0,8.0,73,0.00,,,0.00,Weather View 32 v70,2013-09-29 13:50:00,
2013-09-29 07:55:00,39.0,30.0,30.32,East,90,3.0,8.0,70,0.00,,,0.00,Weather View 32 v70,2013-09-29 13:55:00,
2013-09-29 07:59:00,39.0,29.3,30.31,East,90,7.0,8.0,68,0.00,,,0.00,Weather View 32 v70,2013-09-29 13:59:00,
2013-09-29 08:04:00,40.0,29.5,30.31,East,90,5.0,9.0,66,0.00,,,0.00,Weather View 32 v70,2013-09-29 14:04:00,
2013-09-29 08:09:00,40.0,28.8,30.31,ESE,112,6.0,9.0,64,0.00,,,0.00,Weather View 32 v70,2013-09-29 14:09:00,
2013-09-29 08:14:00,41.0,29.4,30.31,East,90,4.0,9.0,63,0.00,,,0.00,Weather View 32 v70,2013-09-29 14:14:00,
2013-09-29 08:19:00,42.0,29.5,30.31,East,90,3.0,9.0,61,0.00,,,0.00,Weather View 32 v70,2013-09-29 14:19:00,
2013-09-29 08:24:00,42.0,28.7,30.31,East,90,6.0,9.0,59,0.00,,,0.00,Weather View 32 v70,2013-09-29 14:24:00,
2013-09-29 08:29:00,43.0,29.2,30.31,ESE,112,5.0,9.0,58,0.00,,,0.00,Weather View 32 v70,2013-09-29 14:29:00,
2013-09-29 08:34:00,44.0,30.2,30.31,SE,135,2.0,9.0,58,0.00,,,0.00,Weather View 32 v70,2013-09-29 14:34:00,
2013-09-29 08:39:00,44.0,29.7,30.31,SE,135,4.0,9.0,57,0.00,,,0.00,Weather View 32 v70,2013-09-29 14:39:00,
2013-09-29 08:45:00,45.0,29.3,30.31,SE,135,6.0,9.0,54,0.00,,,0.00,Weather View 32 v70,2013-09-29 14:45:00,
2013-09-29 08:50:00,46.0,29.8,30.31,SE,135,4.0,9.0,53,0.00,,,0.00,Weather View 32 v70,2013-09-29 14:50:00,
2013-09-29 08:55:00,46.0,29.3,30.31,ESE,112,4.0,9.0,52,0.00,,,0.00,Weather View 32 v70,2013-09-29 14:55:00,
2013-09-29 09:00:00,47.0,30.3,30.31,East,90,2.0,9.0,52,0.00,,,0.00,Weather View 32 v70,2013-09-29 15:00:00,
2013-09-29 09:05:00,47.0,30.3,30.31,SE,135,5.0,9.0,52,0.00,,,0.00,Weather View 32 v70,2013-09-29 15:05:00,
2013-09-29 09:10:00,48.0,30.7,30.31,SE,135,6.0,9.0,51,0.00,,,0.00,Weather View 32 v70,2013-09-29 15:10:00,
2013-09-29 09:15:00,48.0,30.2,30.31,SE,135,3.0,9.0,50,0.00,,,0.00,Weather View 32 v70,2013-09-29 15:15:00,
2013-09-29 09:21:00,48.0,30.2,30.31,SE,135,4.0,9.0,50,0.00,,,0.00,Weather View 32 v70,2013-09-29 15:21:00,
2013-09-29 09:26:00,49.0,30.1,30.31,East,90,7.0,9.0,48,0.00,,,0.00,Weather View 32 v70,2013-09-29 15:26:00,
2013-09-29 09:31:00,49.0,30.1,30.31,East,90,4.0,9.0,48,0.00,,,0.00,Weather View 32 v70,2013-09-29 15:31:00,
2013-09-29 09:36:00,50.0,30.5,30.30,SE,135,3.0,9.0,47,0.00,,,0.00,Weather View 32 v70,2013-09-29 15:36:00,
2013-09-29 09:41:00,50.0,30.0,30.30,East,90,4.0,9.0,46,0.00,,,0.00,Weather View 32 v70,2013-09-29 15:41:00,
2013-09-29 09:45:00,51.0,31.4,30.30,ESE,112,3.0,9.0,47,0.00,,,0.00,Weather View 32 v70,2013-09-29 15:45:00,
2013-09-29 09:50:00,51.0,30.9,30.30,ESE,112,3.0,9.0,46,0.00,,,0.00,Weather View 32 v70,2013-09-29 15:50:00,
2013-09-29 09:56:00,52.0,30.7,30.30,East,90,3.0,9.0,44,0.00,,,0.00,Weather View 32 v70,2013-09-29 15:56:00,
2013-09-29 10:01:00,52.0,31.3,30.30,SE,135,5.0,9.0,45,0.00,,,0.00,Weather View 32 v70,2013-09-29 16:01:00,
2013-09-29 10:06:00,53.0,31.6,30.30,East,90,5.0,9.0,44,0.00,,,0.00,Weather View 32 v70,2013-09-29 16:06:00,
2013-09-29 10:11:00,53.0,31.6,30.30,SE,135,4.0,9.0,44,0.00,,,0.00,Weather View 32 v70,2013-09-29 16:11:00,
2013-09-29 10:16:00,54.0,32.5,30.29,East,90,5.0,10.0,44,0.00,,,0.00,Weather View 32 v70,2013-09-29 16:16:00,
2013-09-29 10:22:00,53.0,31.6,30.29,East,90,9.0,10.0,44,0.00,,,0.00,Weather View 32 v70,2013-09-29 16:22:00,
2013-09-29 10:27:00,54.0,32.5,30.30,East,90,6.0,11.0,44,0.00,,,0.00,Weather View 32 v70,2013-09-29 16:27:00,
2013-09-29 10:32:00,54.0,32.0,30.30,SE,135,5.0,11.0,43,0.00,,,0.00,Weather View 32 v70,2013-09-29 16:32:00,
2013-09-29 10:37:00,55.0,32.9,30.29,ENE,67,7.0,11.0,43,0.00,,,0.00,Weather View 32 v70,2013-09-29 16:37:00,
2013-09-29 10:42:00,55.0,33.4,30.29,NE,45,4.0,11.0,44,0.00,,,0.00,Weather View 32 v70,2013-09-29 16:42:00,
2013-09-29 10:47:00,56.0,33.2,30.29,East,90,8.0,11.0,42,0.00,,,0.00,Weather View 32 v70,2013-09-29 16:47:00,
2013-09-29 10:52:00,56.0,32.6,30.29,NE,45,0.0,11.0,41,0.00,,,0.00,Weather View 32 v70,2013-09-29 16:52:00,
2013-09-29 10:57:00,57.0,31.6,30.28,East,90,4.0,11.0,38,0.00,,,0.00,Weather View 32 v70,2013-09-29 16:57:00,
2013-09-29 11:02:00,58.0,29.7,30.28,East,90,6.0,11.0,34,0.00,,,0.00,Weather View 32 v70,2013-09-29 17:02:00,
2013-09-29 11:07:00,60.0,31.5,30.27,SE,135,6.0,11.0,34,0.00,,,0.00,Weather View 32 v70,2013-09-29 17:07:00,
2013-09-29 11:12:00,59.0,30.6,30.27,SE,135,8.0,11.0,34,0.00,,,0.00,Weather View 32 v70,2013-09-29 17:12:00,
2013-09-29 11:17:00,60.0,30.0,30.26,East,90,2.0,11.0,32,0.00,,,0.00,Weather View 32 v70,2013-09-29 17:17:00,
2013-09-29 11:22:00,60.0,28.4,30.26,East,90,7.0,11.0,30,0.00,,,0.00,Weather View 32 v70,2013-09-29 17:22:00,
2013-09-29 11:27:00,60.0,27.6,30.26,SE,135,6.0,10.0,29,0.00,,,0.00,Weather View 32 v70,2013-09-29 17:27:00,
2013-09-29 11:32:00,61.0,27.6,30.26,East,90,6.0,10.0,28,0.00,,,0.00,Weather View 32 v70,2013-09-29 17:32:00,
2013-09-29 11:37:00,61.0,27.6,30.26,East,90,9.0,10.0,28,0.00,,,0.00,Weather View 32 v70,2013-09-29 17:37:00,
2013-09-29 11:42:00,62.0,26.6,30.26,East,90,7.0,10.0,26,0.00,,,0.00,Weather View 32 v70,2013-09-29 17:42:00,
2013-09-29 11:47:00,62.0,25.7,30.25,SE,135,4.0,10.0,25,0.00,,,0.00,Weather View 32 v70,2013-09-29 17:47:00,
2013-09-29 11:52:00,63.0,26.5,30.25,SE,135,3.0,10.0,25,0.00,,,0.00,Weather View 32 v70,2013-09-29 17:52:00,
2013-09-29 11:57:00,63.0,26.5,30.25,SE,135,1.0,10.0,25,0.00,,,0.00,Weather View 32 v70,2013-09-29 17:57:00,
2013-09-29 12:03:00,64.0,26.4,30.25,South,180,7.0,10.0,24,0.00,,,0.00,Weather View 32 v70,2013-09-29 18:03:00,
2013-09-29 12:08:00,64.0,25.4,30.24,South,180,3.0,10.0,23,0.00,,,0.00,Weather View 32 v70,2013-09-29 18:08:00,
2013-09-29 12:13:00,65.0,24.0,30.24,SSE,157,4.0,10.0,21,0.00,,,0.00,Weather View 32 v70,2013-09-29 18:13:00,
2013-09-29 12:18:00,65.0,22.9,30.24,SE,135,5.0,10.0,20,0.00,,,0.00,Weather View 32 v70,2013-09-29 18:18:00,
2013-09-29 12:23:00,66.0,24.9,30.24,SSW,202,4.0,10.0,21,0.00,,,0.00,Weather View 32 v70,2013-09-29 18:23:00,
2013-09-29 12:28:00,66.0,26.0,30.23,SSE,157,7.0,10.0,22,0.00,,,0.00,Weather View 32 v70,2013-09-29 18:28:00,
2013-09-29 12:33:00,66.0,28.1,30.23,West,270,4.0,9.0,24,0.00,,,0.00,Weather View 32 v70,2013-09-29 18:33:00,
2013-09-29 12:38:00,66.0,24.9,30.23,NW,315,0.0,9.0,21,0.00,,,0.00,Weather View 32 v70,2013-09-29 18:38:00,
2013-09-29 12:43:00,66.0,24.9,30.23,NE,45,3.0,9.0,21,0.00,,,0.00,Weather View 32 v70,2013-09-29 18:43:00,
2013-09-29 12:48:00,66.0,27.1,30.22,SW,225,5.0,9.0,23,0.00,,,0.00,Weather View 32 v70,2013-09-29 18:48:00,
2013-09-29 12:53:00,66.0,22.5,30.22,SW,225,0.0,9.0,19,0.00,,,0.00,Weather View 32 v70,2013-09-29 18:53:00,
2013-09-29 12:58:00,67.0,22.0,30.22,NE,45,1.0,9.0,18,0.00,,,0.00,Weather View 32 v70,2013-09-29 18:58:00,
2013-09-29 13:03:00,67.0,20.7,30.22,South,180,3.0,9.0,17,0.00,,,0.00,Weather View 32 v70,2013-09-29 19:03:00,
2013-09-29 13:08:00,67.0,22.0,30.21,SE,135,5.0,9.0,18,0.00,,,0.00,Weather View 32 v70,2013-09-29 19:08:00,
2013-09-29 13:13:00,67.0,20.7,30.21,East,90,1.0,9.0,17,0.00,,,0.00,Weather View 32 v70,2013-09-29 19:13:00,
2013-09-29 13:18:00,68.0,21.5,30.20,West,270,3.0,9.0,17,0.00,,,0.00,Weather View 32 v70,2013-09-29 19:18:00,
2013-09-29 13:23:00,68.0,21.5,30.20,SW,225,8.0,9.0,17,0.00,,,0.00,Weather View 32 v70,2013-09-29 19:23:00,
2013-09-29 13:28:00,68.0,21.5,30.19,West,270,4.0,11.0,17,0.00,,,0.00,Weather View 32 v70,2013-09-29 19:28:00,
2013-09-29 13:33:00,68.0,20.0,30.19,SW,225,6.0,11.0,16,0.00,,,0.00,Weather View 32 v70,2013-09-29 19:33:00,
2013-09-29 13:38:00,68.0,16.9,30.19,SE,135,3.0,11.0,14,0.00,,,0.00,Weather View 32 v70,2013-09-29 19:38:00,
2013-09-29 13:44:00,69.0,23.6,30.19,West,270,4.0,11.0,18,0.00,,,0.00,Weather View 32 v70,2013-09-29 19:44:00,
2013-09-29 13:48:00,69.0,20.8,30.18,NW,315,6.0,11.0,16,0.00,,,0.00,Weather View 32 v70,2013-09-29 19:48:00,
2013-09-29 13:53:00,69.0,20.8,30.18,SW,225,7.0,11.0,16,0.00,,,0.00,Weather View 32 v70,2013-09-29 19:53:00,
2013-09-29 13:58:00,70.0,21.6,30.17,SW,225,7.0,11.0,16,0.00,,,0.00,Weather View 32 v70,2013-09-29 19:58:00,
2013-09-29 14:03:00,70.0,20.1,30.17,SW,225,3.0,11.0,15,0.00,,,0.00,Weather View 32 v70,2013-09-29 20:03:00,
2013-09-29 14:08:00,70.0,18.5,30.16,SSE,157,3.0,11.0,14,0.00,,,0.00,Weather View 32 v70,2013-09-29 20:08:00,
2013-09-29 14:13:00,70.0,20.1,30.16,NW,315,6.0,11.0,15,0.00,,,0.00,Weather View 32 v70,2013-09-29 20:13:00,
2013-09-29 14:18:00,70.0,21.6,30.15,NW,315,1.0,11.0,16,0.00,,,0.00,Weather View 32 v70,2013-09-29 20:18:00,
2013-09-29 14:23:00,70.0,20.1,30.15,WNW,292,2.0,11.0,15,0.00,,,0.00,Weather View 32 v70,2013-09-29 20:23:00,
2013-09-29 14:28:00,70.0,21.6,30.15,SSW,202,9.0,10.0,16,0.00,,,0.00,Weather View 32 v70,2013-09-29 20:28:00,
2013-09-29 14:34:00,71.0,19.3,30.15,West,270,3.0,10.0,14,0.00,,,0.00,Weather View 32 v70,2013-09-29 20:34:00,
2013-09-29 14:39:00,71.0,17.6,30.14,SW,225,8.0,10.0,13,0.00,,,0.00,Weather View 32 v70,2013-09-29 20:39:00,
2013-09-29 14:44:00,71.0,23.9,30.14,WSW,247,3.0,10.0,17,0.00,,,0.00,Weather View 32 v70,2013-09-29 20:44:00,
2013-09-29 14:49:00,71.0,17.6,30.13,NW,315,3.0,10.0,13,0.00,,,0.00,Weather View 32 v70,2013-09-29 20:49:00,
2013-09-29 14:54:00,72.0,18.4,30.13,SW,225,6.0,12.0,13,0.00,,,0.00,Weather View 32 v70,2013-09-29 20:54:00,
2013-09-29 14:59:00,72.0,18.4,30.13,WSW,247,6.0,12.0,13,0.00,,,0.00,Weather View 32 v70,2013-09-29 20:59:00,
2013-09-29 15:04:00,72.0,16.5,30.13,SSW,202,5.0,12.0,12,0.00,,,0.00,Weather View 32 v70,2013-09-29 21:04:00,
2013-09-29 15:09:00,72.0,14.5,30.13,WNW,292,5.0,12.0,11,0.00,,,0.00,Weather View 32 v70,2013-09-29 21:09:00,
2013-09-29 15:14:00,72.0,20.1,30.13,WSW,247,8.0,12.0,14,0.00,,,0.00,Weather View 32 v70,2013-09-29 21:14:00,
2013-09-29 15:19:00,72.0,20.1,30.13,West,270,8.0,12.0,14,0.00,,,0.00,Weather View 32 v70,2013-09-29 21:19:00,
2013-09-29 15:24:00,72.0,18.4,30.13,West,270,8.0,12.0,13,0.00,,,0.00,Weather View 32 v70,2013-09-29 21:24:00,
2013-09-29 15:29:00,72.0,18.4,30.12,NW,315,4.0,12.0,13,0.00,,,0.00,Weather View 32 v70,2013-09-29 21:29:00,
2013-09-29 15:34:00,72.0,18.4,30.12,NW,315,2.0,12.0,13,0.00,,,0.00,Weather View 32 v70,2013-09-29 21:34:00,
2013-09-29 15:39:00,72.0,18.4,30.12,West,270,7.0,13.0,13,0.00,,,0.00,Weather View 32 v70,2013-09-29 21:39:00,
2013-09-29 15:44:00,72.0,18.4,30.12,WNW,292,4.0,13.0,13,0.00,,,0.00,Weather View 32 v70,2013-09-29 21:44:00,
2013-09-29 15:49:00,72.0,18.4,30.12,WNW,292,5.0,13.0,13,0.00,,,0.00,Weather View 32 v70,2013-09-29 21:49:00,
2013-09-29 15:54:00,71.0,17.6,30.12,NW,315,5.0,13.0,13,0.00,,,0.00,Weather View 32 v70,2013-09-29 21:54:00,
2013-09-29 15:59:00,72.0,20.1,30.11,West,270,4.0,13.0,14,0.00,,,0.00,Weather View 32 v70,2013-09-29 21:59:00,
2013-09-29 16:04:00,72.0,18.4,30.11,West,270,5.0,13.0,13,0.00,,,0.00,Weather View 32 v70,2013-09-29 22:04:00,
2013-09-29 16:09:00,72.0,18.4,30.12,West,270,6.0,13.0,13,0.00,,,0.00,Weather View 32 v70,2013-09-29 22:09:00,
2013-09-29 16:14:00,72.0,18.4,30.12,West,270,5.0,13.0,13,0.00,,,0.00,Weather View 32 v70,2013-09-29 22:14:00,
2013-09-29 16:19:00,72.0,18.4,30.11,West,270,5.0,13.0,13,0.00,,,0.00,Weather View 32 v70,2013-09-29 22:19:00,
2013-09-29 16:24:00,72.0,21.7,30.11,West,270,6.0,13.0,15,0.00,,,0.00,Weather View 32 v70,2013-09-29 22:24:00,
2013-09-29 16:29:00,72.0,18.4,30.11,West,270,5.0,13.0,13,0.00,,,0.00,Weather View 32 v70,2013-09-29 22:29:00,
2013-09-29 16:34:00,72.0,18.4,30.11,NW,315,5.0,16.0,13,0.00,,,0.00,Weather View 32 v70,2013-09-29 22:34:00,
2013-09-29 16:39:00,72.0,18.4,30.11,NW,315,4.0,16.0,13,0.00,,,0.00,Weather View 32 v70,2013-09-29 22:39:00,
2013-09-29 16:44:00,72.0,21.7,30.11,WNW,292,7.0,16.0,15,0.00,,,0.00,Weather View 32 v70,2013-09-29 22:44:00,
2013-09-29 16:49:00,72.0,21.7,30.11,NW,315,6.0,16.0,15,0.00,,,0.00,Weather View 32 v70,2013-09-29 22:49:00,
2013-09-29 16:54:00,72.0,18.4,30.11,SW,225,10.0,16.0,13,0.00,,,0.00,Weather View 32 v70,2013-09-29 22:54:00,
2013-09-29 16:59:00,72.0,18.4,30.11,NW,315,7.0,16.0,13,0.00,,,0.00,Weather View 32 v70,2013-09-29 22:59:00,
2013-09-29 17:04:00,71.0,19.3,30.11,WSW,247,5.0,16.0,14,0.00,,,0.00,Weather View 32 v70,2013-09-29 23:04:00,
2013-09-29 17:10:00,71.0,20.9,30.11,North,360,5.0,16.0,15,0.00,,,0.00,Weather View 32 v70,2013-09-29 23:10:00,
2013-09-29 17:15:00,71.0,22.4,30.11,North,360,7.0,16.0,16,0.00,,,0.00,Weather View 32 v70,2013-09-29 23:15:00,
2013-09-29 17:20:00,71.0,22.4,30.11,West,270,6.0,16.0,16,0.00,,,0.00,Weather View 32 v70,2013-09-29 23:20:00,
2013-09-29 17:25:00,71.0,20.9,30.11,WNW,292,4.0,16.0,15,0.00,,,0.00,Weather View 32 v70,2013-09-29 23:25:00,
2013-09-29 17:30:00,71.0,19.3,30.11,West,270,5.0,16.0,14,0.00,,,0.00,Weather View 32 v70,2013-09-29 23:30:00,
2013-09-29 17:35:00,71.0,20.9,30.11,West,270,5.0,14.0,15,0.00,,,0.00,Weather View 32 v70,2013-09-29 23:35:00,
2013-09-29 17:40:00,71.0,22.4,30.11,NW,315,6.0,14.0,16,0.00,,,0.00,Weather View 32 v70,2013-09-29 23:40:00,
2013-09-29 17:45:00,71.0,22.4,30.11,NW,315,9.0,14.0,16,0.00,,,0.00,Weather View 32 v70,2013-09-29 23:45:00,
2013-09-29 17:51:00,71.0,22.4,30.12,NW,315,7.0,14.0,16,0.00,,,0.00,Weather View 32 v70,2013-09-29 23:51:00,
2013-09-29 17:56:00,71.0,19.3,30.11,West,270,9.0,14.0,14,0.00,,,0.00,Weather View 32 v70,2013-09-29 23:56:00,
2013-09-29 18:01:00,70.0,21.6,30.11,WNW,292,10.0,14.0,16,0.00,,,0.00,Weather View 32 v70,2013-09-30 00:01:00,
2013-09-29 18:06:00,70.0,23.1,30.12,NW,315,4.0,14.0,17,0.00,,,0.00,Weather View 32 v70,2013-09-30 00:06:00,
2013-09-29 18:11:00,69.0,23.6,30.12,WNW,292,4.0,14.0,18,0.00,,,0.00,Weather View 32 v70,2013-09-30 00:11:00,
2013-09-29 18:16:00,69.0,23.6,30.12,West,270,5.0,14.0,18,0.00,,,0.00,Weather View 32 v70,2013-09-30 00:16:00,
2013-09-29 18:21:00,68.0,22.8,30.12,West,270,5.0,14.0,18,0.00,,,0.00,Weather View 32 v70,2013-09-30 00:21:00,
2013-09-29 18:26:00,68.0,24.1,30.12,WNW,292,5.0,12.0,19,0.00,,,0.00,Weather View 32 v70,2013-09-30 00:26:00,
2013-09-29 18:31:00,67.0,24.5,30.12,NW,315,4.0,12.0,20,0.00,,,0.00,Weather View 32 v70,2013-09-30 00:31:00,
2013-09-29 18:36:00,67.0,24.5,30.12,NW,315,3.0,12.0,20,0.00,,,0.00,Weather View 32 v70,2013-09-30 00:36:00,
2013-09-29 18:41:00,66.0,23.7,30.12,WNW,292,4.0,12.0,20,0.00,,,0.00,Weather View 32 v70,2013-09-30 00:41:00,
2013-09-29 18:46:00,66.0,22.5,30.12,West,270,4.0,12.0,19,0.00,,,0.00,Weather View 32 v70,2013-09-30 00:46:00,
2013-09-29 18:51:00,66.0,23.7,30.12,WNW,292,5.0,12.0,20,0.00,,,0.00,Weather View 32 v70,2013-09-30 00:51:00,
2013-09-29 18:56:00,66.0,23.7,30.12,WNW,292,5.0,12.0,20,0.00,,,0.00,Weather View 32 v70,2013-09-30 00:56:00,
2013-09-29 19:01:00,65.0,24.0,30.12,WNW,292,3.0,11.0,21,0.00,,,0.00,Weather View 32 v70,2013-09-30 01:01:00,
2013-09-29 19:06:00,65.0,24.0,30.13,WNW,292,3.0,9.0,21,0.00,,,0.00,Weather View 32 v70,2013-09-30 01:06:00,
2013-09-29 19:11:00,64.0,24.3,30.13,WNW,292,2.0,9.0,22,0.00,,,0.00,Weather View 32 v70,2013-09-30 01:11:00,
2013-09-29 19:16:00,64.0,24.3,30.13,WNW,292,3.0,9.0,22,0.00,,,0.00,Weather View 32 v70,2013-09-30 01:16:00,
2013-09-29 19:21:00,63.0,23.5,30.13,WNW,292,3.0,8.0,22,0.00,,,0.00,Weather View 32 v70,2013-09-30 01:21:00,
2013-09-29 19:26:00,63.0,24.5,30.14,WNW,292,3.0,8.0,23,0.00,,,0.00,Weather View 32 v70,2013-09-30 01:26:00,
2013-09-29 19:31:00,62.0,23.7,30.14,WNW,292,2.0,7.0,23,0.00,,,0.00,Weather View 32 v70,2013-09-30 01:31:00,
2013-09-29 19:36:00,62.0,23.7,30.13,WNW,292,3.0,7.0,23,0.00,,,0.00,Weather View 32 v70,2013-09-30 01:36:00,
2013-09-29 19:41:00,61.0,25.8,30.13,WNW,292,1.0,7.0,26,0.00,,,0.00,Weather View 32 v70,2013-09-30 01:41:00,
2013-09-29 19:46:00,61.0,24.9,30.14,WNW,292,1.0,7.0,25,0.00,,,0.00,Weather View 32 v70,2013-09-30 01:46:00,
2013-09-29 19:51:00,61.0,27.6,30.14,WNW,292,0.0,6.0,28,0.00,,,0.00,Weather View 32 v70,2013-09-30 01:51:00,
2013-09-29 19:56:00,60.0,25.9,30.14,North,360,5.0,6.0,27,0.00,,,0.00,Weather View 32 v70,2013-09-30 01:56:00,
2013-09-29 20:01:00,60.0,26.7,30.14,North,360,0.0,6.0,28,0.00,,,0.00,Weather View 32 v70,2013-09-30 02:01:00,
2013-09-29 20:06:00,60.0,26.7,30.14,North,360,0.0,6.0,28,0.00,,,0.00,Weather View 32 v70,2013-09-30 02:06:00,
2013-09-29 20:11:00,59.0,26.7,30.14,NNE,22,0.0,6.0,29,0.00,,,0.00,Weather View 32 v70,2013-09-30 02:11:00,
2013-09-29 20:16:00,59.0,26.7,30.15,NNE,22,3.0,6.0,29,0.00,,,0.00,Weather View 32 v70,2013-09-30 02:16:00,
2013-09-29 20:21:00,58.0,25.9,30.15,NNE,22,2.0,6.0,29,0.00,,,0.00,Weather View 32 v70,2013-09-30 02:21:00,
2013-09-29 20:26:00,58.0,28.2,30.14,NNE,22,2.0,6.0,32,0.00,,,0.00,Weather View 32 v70,2013-09-30 02:26:00,
2013-09-29 20:31:00,58.0,27.5,30.14,NNE,22,0.0,6.0,31,0.00,,,0.00,Weather View 32 v70,2013-09-30 02:31:00,
2013-09-29 20:36:00,57.0,28.1,30.14,NNE,22,1.0,6.0,33,0.00,,,0.00,Weather View 32 v70,2013-09-30 02:36:00,
2013-09-29 20:41:00,57.0,28.9,30.14,NNE,22,0.0,6.0,34,0.00,,,0.00,Weather View 32 v70,2013-09-30 02:41:00,
2013-09-29 20:46:00,57.0,29.6,30.16,NNE,22,1.0,6.0,35,0.00,,,0.00,Weather View 32 v70,2013-09-30 02:46:00,
2013-09-29 20:51:00,56.0,30.7,30.16,NNE,22,2.0,6.0,38,0.00,,,0.00,Weather View 32 v70,2013-09-30 02:51:00,
2013-09-29 20:57:00,55.0,28.5,30.16,NNE,22,2.0,5.0,36,0.00,,,0.00,Weather View 32 v70,2013-09-30 02:57:00,
2013-09-29 21:02:00,55.0,29.8,30.16,NNE,22,2.0,4.0,38,0.00,,,0.00,Weather View 32 v70,2013-09-30 03:02:00,
2013-09-29 21:07:00,55.0,28.5,30.15,NNE,22,0.0,4.0,36,0.00,,,0.00,Weather View 32 v70,2013-09-30 03:07:00,
2013-09-29 21:12:00,54.0,28.9,30.15,NNE,22,5.0,5.0,38,0.00,,,0.00,Weather View 32 v70,2013-09-30 03:12:00,
2013-09-29 21:17:00,54.0,28.3,30.16,NNE,22,3.0,5.0,37,0.00,,,0.00,Weather View 32 v70,2013-09-30 03:17:00,
2013-09-29 21:22:00,54.0,26.9,30.16,NNE,22,5.0,5.0,35,0.00,,,0.00,Weather View 32 v70,2013-09-30 03:22:00,
2013-09-29 21:27:00,54.0,25.5,30.15,NNE,22,5.0,6.0,33,0.00,,,0.00,Weather View 32 v70,2013-09-30 03:27:00,
2013-09-29 21:32:00,55.0,27.1,30.15,NNE,22,5.0,6.0,34,0.00,,,0.00,Weather View 32 v70,2013-09-30 03:32:00,
2013-09-29 21:37:00,55.0,25.6,30.16,North,360,5.0,6.0,32,0.00,,,0.00,Weather View 32 v70,2013-09-30 03:37:00,
2013-09-29 21:42:00,55.0,24.1,30.16,North,360,3.0,7.0,30,0.00,,,0.00,Weather View 32 v70,2013-09-30 03:42:00,
2013-09-29 21:47:00,55.0,24.9,30.16,North,360,3.0,7.0,31,0.00,,,0.00,Weather View 32 v70,2013-09-30 03:47:00,
2013-09-29 21:52:00,54.0,25.5,30.16,North,360,0.0,7.0,33,0.00,,,0.00,Weather View 32 v70,2013-09-30 03:52:00,
2013-09-29 21:57:00,54.0,27.6,30.16,North,360,0.0,7.0,36,0.00,,,0.00,Weather View 32 v70,2013-09-30 03:57:00,
2013-09-29 22:01:00,53.0,28.0,30.16,North,360,0.0,7.0,38,0.00,,,0.00,Weather View 32 v70,2013-09-30 04:01:00,
2013-09-29 22:06:00,53.0,28.7,30.16,North,360,0.0,7.0,39,0.00,,,0.00,Weather View 32 v70,2013-09-30 04:06:00,
2013-09-29 22:11:00,53.0,29.9,30.16,North,360,0.0,7.0,41,0.00,,,0.00,Weather View 32 v70,2013-09-30 04:11:00,
2013-09-29 22:16:00,52.0,29.0,30.16,North,360,3.0,7.0,41,0.00,,,0.00,Weather View 32 v70,2013-09-30 04:16:00,
2013-09-29 22:21:00,52.0,29.6,30.16,North,360,0.0,7.0,42,0.00,,,0.00,Weather View 32 v70,2013-09-30 04:21:00,
2013-09-29 22:26:00,52.0,30.2,30.16,North,360,1.0,7.0,43,0.00,,,0.00,Weather View 32 v70,2013-09-30 04:26:00,
2013-09-29 22:31:00,51.0,28.1,30.16,North,360,0.0,7.0,41,0.00,,,0.00,Weather View 32 v70,2013-09-30 04:31:00,
2013-09-29 22:36:00,51.0,26.9,30.16,North,360,0.0,7.0,39,0.00,,,0.00,Weather View 32 v70,2013-09-30 04:36:00,
2013-09-29 22:41:00,50.0,26.6,30.16,North,360,2.0,6.0,40,0.00,,,0.00,Weather View 32 v70,2013-09-30 04:41:00,
2013-09-29 22:46:00,50.0,27.2,30.17,North,360,2.0,5.0,41,0.00,,,0.00,Weather View 32 v70,2013-09-30 04:46:00,
2013-09-29 22:51:00,50.0,26.6,30.17,North,360,2.0,5.0,40,0.00,,,0.00,Weather View 32 v70,2013-09-30 04:51:00,
2013-09-29 22:56:00,50.0,28.3,30.17,East,90,4.0,7.0,43,0.00,,,0.00,Weather View 32 v70,2013-09-30 04:56:00,
2013-09-29 23:01:00,50.0,30.0,30.17,East,90,4.0,7.0,46,0.00,,,0.00,Weather View 32 v70,2013-09-30 05:01:00,
2013-09-29 23:06:00,50.0,30.5,30.18,East,90,3.0,7.0,47,0.00,,,0.00,Weather View 32 v70,2013-09-30 05:06:00,
2013-09-29 23:11:00,49.0,29.1,30.18,East,90,1.0,7.0,46,0.00,,,0.00,Weather View 32 v70,2013-09-30 05:11:00,
2013-09-29 23:16:00,49.0,28.5,30.17,East,90,3.0,7.0,45,0.00,,,0.00,Weather View 32 v70,2013-09-30 05:16:00,
2013-09-29 23:21:00,49.0,28.0,30.17,East,90,5.0,7.0,44,0.00,,,0.00,Weather View 32 v70,2013-09-30 05:21:00,
2013-09-29 23:26:00,49.0,26.9,30.17,ENE,67,4.0,7.0,42,0.00,,,0.00,Weather View 32 v70,2013-09-30 05:26:00,
2013-09-29 23:31:00,49.0,26.9,30.17,ENE,67,3.0,7.0,42,0.00,,,0.00,Weather View 32 v70,2013-09-30 05:31:00,
2013-09-29 23:36:00,49.0,26.9,30.18,ENE,67,5.0,8.0,42,0.00,,,0.00,Weather View 32 v70,2013-09-30 05:36:00,
2013-09-29 23:41:00,49.0,26.3,30.18,ENE,67,3.0,8.0,41,0.00,,,0.00,Weather View 32 v70,2013-09-30 05:41:00,
2013-09-29 23:46:00,49.0,25.7,30.17,ENE,67,4.0,8.0,40,0.00,,,0.00,Weather View 32 v70,2013-09-30 05:46:00,
2013-09-29 23:51:00,49.0,26.3,30.17,ENE,67,4.0,8.0,41,0.00,,,0.00,Weather View 32 v70,2013-09-30 05:51:00,
2013-09-29 23:56:00,49.0,25.7,30.18,ENE,67,3.0,8.0,40,0.00,,,0.00,Weather View 32 v70,2013-09-30 05:56:00,